Preview of NWS' New Version of Forecast
This preview is not operational and should not be used for support decisions.

Regional Weather Roundup (RWR)

Issued by National Weather Service (NWS)

                            
000
ASUS45 KABQ 250301
RWRNM 
NEW MEXICO REGIONAL WEATHER ROUNDUP
NATIONAL WEATHER SERVICE ALBUQUERQUE NM
900 PM MDT SAT AUG 24 2019

NOTE: "FAIR" MEANS FEW OR NO CLOUDS BELOW 12,000 FEET AGL WITH NO
       SIGNIFICANT WEATHER OR OBSTRUCTIONS TO VISION.

      THIS PRODUCT IS RELEASED AS TWO VERSIONS.  ONE VERSION NEAR
      THE TOP OF THE HOUR CONTAINING PRELIMINARY DATA FROM ALBUQUERQUE
      AND OTHER STATIONS.  A FINAL VERSION WITH ADDITIONAL DATA IS 
      ISSUED ABOUT 10 MINUTES AFTER THE HOUR.
 
NMZ501-503-504-510>518-250400-
NORTHWEST PLATEAU/NORTHCENTRAL MOUNTAINS
  
CITY           SKY/WX    TMP DP  RH WIND       PRES   REMARKS
FARMINGTON     FAIR      82  26  13 N3        30.08S                  
LOS ALAMOS       N/A     75  25  15 W14       30.24S                  
SANTA FE       FAIR      73  28  18 NW9       30.15R                  
TAOS           FAIR      69  32  25 CALM      30.23R                  
ANGEL FIRE     FAIR      57  37  46 CALM      30.33R                  

$$
NMZ402-403-502-505>509-250400-
WESTCENTRAL MOUNTAINS/SOUTHWEST MOUNTAINS
  
CITY           SKY/WX    TMP DP  RH WIND       PRES   REMARKS
GALLUP         FAIR      71  29  21 W7        30.21R                  
GRANTS         FAIR      76  31  19 W9        30.22R                  
SILVER CITY    FAIR      73  55  52 N7        30.16R                  

$$
NMZ407-409-411-412-250400-
SOUTHERN DESERTS
  
CITY           SKY/WX    TMP DP  RH WIND       PRES   REMARKS
DEMING         FAIR      86  54  33 W10       30.06R                  
LAS CRUCES     FAIR      84  46  26 W7        30.06R                  
HOLLOMAN AFB   FAIR      85  51  30 S7        30.03R                  
ALAMOGORDO     FAIR      81  46  30 SE8       30.03R                  
T OR C         FAIR      89  48  24 SW9       30.05R                  

$$
NMZ519>523-250400-
CENTRAL VALLEYS/CENTRAL HIGHLANDS
  
CITY           SKY/WX    TMP DP  RH WIND       PRES   REMARKS
ALBUQUERQUE    FAIR      86  32  14 N6        30.07R                  
DOUBLE EAGLE   PTCLDY    75  30  19 NW7       30.12R                  
CLINES CORNERS FAIR      70  27  20 NW8       30.23R                  
BELEN          FAIR      83  28  13 W8        30.07R                  
SOCORRO        FAIR      88  36  16 W9        30.04R                  

$$
NMZ524>526-539-540-250400-
SOUTHCENTRAL MOUNTAINS
  
CITY           SKY/WX    TMP DP  RH WIND       PRES   REMARKS
RUIDOSO        FAIR      72  41  33 SW10      30.24S                  

$$
NMZ527>531-250400-
NORTHEAST HIGHLANDS/NORTHEAST PLAINS
  
CITY           SKY/WX    TMP DP  RH WIND       PRES   REMARKS
LAS VEGAS      FAIR      70  32  24 W8        30.17S                  
RATON          FAIR      71  49  45 NE12      30.12R                  
CLAYTON        FAIR      69  60  73 S7        30.02R                  

$$
NMZ532>537-250400-
EASTCENTRAL PLAINS
  
CITY           SKY/WX    TMP DP  RH WIND       PRES   REMARKS
SANTA ROSA     FAIR      81  46  29 S6        29.99R                  
TUCUMCARI      FAIR      77  56  48 SW9       29.91R                  
CANNON AFB     FAIR      77  62  59 SE15      30.00R                  
CLOVIS AIRPORT FAIR      78  64  61 S16       30.01R                  

$$
NMZ028-029-538-250400-
SOUTHEAST PLAINS
  
CITY           SKY/WX    TMP DP  RH WIND       PRES   REMARKS
ROSWELL        FAIR      91  50  24 S10       29.93R                  
ARTESIA        FAIR      90  54  29 S10       29.96R                  
CARLSBAD       FAIR      89  49  25 S9        29.93R                  


$$